Hourly Data Report for October 14, 2015

All times are specified in Local Standard Time (LST). Add 1 hour to adjust for Daylight Saving Time where and when it is observed.

KUGLUKTUK A
NUNAVUT

67°49'00.000" N
115°08'38.000" W
22.60 m
2300903
71938
YCO

Download Data

Hourly Data (October 2015)
Hourly Data Report for October 14, 2015
Temp Definition
°C
Dew Point Temp Definition
°C
Rel Hum Definition
%
Wind Dir Definition
10's deg

Wind Spd Definition
km/h
Visibility Definition
km
Stn Press Definition
kPa
Hmdx Definition


Wind Chill Definition


Weather Definition


TIME
00:00 Legend Double Dagger -11.8 -14.1 83 12 11 24.1 101.08   -18 LegendNANA
01:00 Legend Double Dagger -12.1 -14.4 83 14 13 24.1 101.13   -19 LegendNANA
02:00 Legend Double Dagger -12.8 -14.8 85 15 9 24.1 101.23   -18 Mainly Clear
03:00 Legend Double Dagger -12.2 -14.5 83 15 9 24.1 101.27   -17 LegendNANA
04:00 Legend Double Dagger -14.8 -16.5 87 19 11 24.1 101.35   -21 LegendNANA
05:00 Legend Double Dagger -14.0 -15.9 86 17 8 24.1 101.40   -19 Mainly Clear
06:00 Legend Double Dagger -14.8 -16.7 86 17 9 24.1 101.47   -21 LegendNANA
07:00 Legend Double Dagger -15.6 -17.9 83 20 12 24.1 101.54   -23 LegendNANA
08:00 Legend Double Dagger -15.2 -17.0 86 21 15 24.1 101.60   -23 Mainly Clear
09:00 Legend Double Dagger -13.6 -15.8 84 20 12 24.1 101.65   -20 LegendNANA
10:00 Legend Double Dagger -11.1 -12.7 88 20 18 24.1 101.68   -19 LegendNANA
11:00 Legend Double Dagger -9.5 -11.4 86 24 13 24.1 101.71   -16 Mostly Cloudy
12:00 Legend Double Dagger -8.2 -10.9 81 22 22 24.1 101.71   -16 LegendNANA
13:00 Legend Double Dagger -7.5 -10.4 80 23 11 24.1 101.73   -13 LegendNANA
14:00 Legend Double Dagger -7.2 -10.6 77 24 9 24.1 101.73   -12 Mainly Clear
15:00 Legend Double Dagger -7.2 -10.7 76 27 8 24.1 101.77   -11 LegendNANA
16:00 Legend Double Dagger -7.3 -10.7 77 27 4 24.1 101.80   -9 LegendNANA
17:00 Legend Double Dagger -9.9 -12.3 83 22 12 24.1 101.80   -16 Mainly Clear
18:00 Legend Double Dagger -10.8 -12.6 87 25 11 24.1 101.82   -17 LegendNANA
19:00 Legend Double Dagger -9.2 -11.0 87 22 13 24.1 101.83   -15 LegendNANA
20:00 Legend Double Dagger -7.9 -9.9 86 20 6 24.1 101.82   -11 Mostly Cloudy
21:00 Legend Double Dagger -7.2 -9.6 83 22 13 24.1 101.77   -13 Snow
22:00 Legend Double Dagger -7.2 -9.9 81 26 16 24.1 101.77   -14 Snow
23:00 Legend Double Dagger -8.1 -9.9 87 27 14 24.1 101.80   -14 Mainly Clear

Notes on Data Quality.

Legend

  • E = Estimated
  • M = Missing
  • NA = Not Available
  • ‡ = Partner data that is not subject to review by the National Climate Archives
Date modified: